Morgantown, WV

4:20 AM EDT on May 26, 2018 (GMT -0400)
Morgantown Municipal-Hart

Weather History for KMGW - May, 2012

Change the Weather History Date:

Wednesday, May 16, 2012

  Actual Average Record
Temperature  
Mean Temperature 66 °F 61 °F  
Max Temperature 80 °F 72 °F 94 °F (1900)
Min Temperature 52 °F 50 °F 30 °F (1984)
Degree Days  
Heating Degree Days 0 6  
Month to date heating degree days 48 109  
Since 1 July heating degree days 4117 5092  
Cooling Degree Days 1 2  
Month to date cooling degree days 47 18  
Year to date cooling degree days 82 34  
Growing Degree Days 16 (Base 50)    
Moisture  
Dew Point 52 °F    
Average Humidity 61    
Maximum Humidity 93    
Minimum Humidity 28    
Precipitation  
Precipitation 0.00 in 0.15 in 1.88 in (1898)
Month to date precipitation 3.01 2.30  
Year to date precipitation 11.99 14.88  
Sea Level Pressure  
Sea Level Pressure 29.98 in    
Wind  
Wind Speed 6 mph (West)    
Max Wind Speed 16 mph    
Max Gust Speed 22 mph    
Visibility 8 miles    
Events      
T = Trace of Precipitation, MM = Missing Value Source: NWS Daily Summary

Daily Weather History Graph

Daily Weather History Graph

Search for Another Location

Airport or City:

Astronomy

May. 16, 2012 Rise Set
Actual Time 6:04 AM EDT 8:28 PM EDT
Civil Twilight 5:33 AM EDT 8:59 PM EDT
Nautical Twilight 4:55 AM EDT 9:37 PM EDT
Astronomical Twilight 4:13 AM EDT 10:19 PM EDT
Moon 3:32 AM EDT (5/16) 4:43 PM EDT (5/16)
Length of Visible Light 15h 25m
Length of Day
14h 24m
Waning Crescent, 16% of the Moon is Illuminated
May 16
Waning Crescent
May 20
New
May 28
First Quarter
Jun 4
Full
Jun 11
Last Quarter

Hourly Weather History & Observations

Time (EDT) Temp. Dew Point Humidity Pressure Visibility Wind Dir Wind Speed Gust Speed Precip Events Conditions
12:53 AM 57.9 °F 55.0 °F 90% 29.98 in 5.0 mi South 3.5 mph - N/A   Clear
1:53 AM 57.9 °F 55.0 °F 90% 29.98 in 6.0 mi Calm Calm - N/A   Clear
2:53 AM 55.0 °F 54.0 °F 96% 29.98 in 3.0 mi Calm Calm - N/A   Clear
3:53 AM 55.9 °F 54.0 °F 93% 29.97 in 3.0 mi South 3.5 mph - N/A   Clear
4:09 AM 53.6 °F 53.6 °F 100% 29.98 in 2.5 mi South 4.6 mph - N/A   Clear
4:16 AM 55.4 °F 53.6 °F 94% 29.98 in 3.0 mi South 4.6 mph - N/A   Clear
4:53 AM 57.0 °F 54.0 °F 89% 29.97 in 5.0 mi Calm Calm - N/A   Clear
5:33 AM 53.6 °F 53.6 °F 100% 29.98 in 2.5 mi SSW 4.6 mph - N/A   Clear
5:53 AM 55.0 °F 53.1 °F 93% 29.97 in 3.0 mi SSW 3.5 mph - N/A   Clear
6:53 AM 57.9 °F 55.0 °F 90% 29.98 in 4.0 mi Calm Calm - N/A   Clear
7:53 AM 59.0 °F 55.9 °F 90% 29.98 in 5.0 mi South 3.5 mph - N/A   Clear
8:53 AM 63.0 °F 57.0 °F 81% 29.98 in 8.0 mi Variable 4.6 mph - N/A   Clear
9:53 AM 66.9 °F 55.9 °F 68% 29.98 in 10.0 mi SW 8.1 mph - N/A   Clear
10:53 AM 70.0 °F 57.0 °F 63% 29.98 in 10.0 mi WSW 8.1 mph - N/A   Clear
11:53 AM 73.9 °F 54.0 °F 50% 29.97 in 10.0 mi SW 6.9 mph - N/A   Clear
12:53 PM 75.9 °F 54.0 °F 46% 29.96 in 10.0 mi Variable 5.8 mph - N/A   Clear
1:53 PM 77.0 °F 46.9 °F 34% 29.93 in 10.0 mi West 9.2 mph - N/A   Scattered Clouds
2:53 PM 78.1 °F 45.0 °F 31% 29.93 in 10.0 mi West 6.9 mph 16.1 mph N/A   Partly Cloudy
3:53 PM 80.1 °F 45.0 °F 29% 29.90 in 10.0 mi West 6.9 mph - N/A   Clear
4:53 PM 78.8 °F 44.6 °F 30% 29.91 in 10.0 mi SW 9.2 mph - N/A   Mostly Cloudy
5:53 PM 77.0 °F 46.9 °F 34% 29.90 in 10.0 mi WSW 3.5 mph - N/A   Overcast
6:53 PM 75.0 °F 48.0 °F 38% 29.91 in 10.0 mi Calm Calm - N/A   Overcast
7:53 PM 66.0 °F 55.0 °F 68% 29.96 in 10.0 mi North 10.4 mph 19.6 mph N/A   Partly Cloudy
8:29 PM 64.4 °F 53.6 °F 68% 30.00 in 10.0 mi North 16.1 mph 19.6 mph N/A   Mostly Cloudy
8:38 PM 62.6 °F 53.6 °F 72% 30.01 in 10.0 mi North 9.2 mph 19.6 mph N/A   Mostly Cloudy
8:53 PM 62.1 °F 54.0 °F 75% 30.01 in 10.0 mi North 9.2 mph - N/A   Scattered Clouds
9:53 PM 59.0 °F 52.0 °F 78% 30.04 in 10.0 mi North 8.1 mph 17.3 mph N/A   Scattered Clouds
10:38 PM 57.2 °F 50.0 °F 77% 30.07 in 10.0 mi North 6.9 mph - N/A   Overcast
10:53 PM 57.0 °F 48.9 °F 74% 30.06 in 10.0 mi North 8.1 mph - N/A   Mostly Cloudy
11:02 PM 57.2 °F 48.2 °F 72% 30.07 in 10.0 mi North 8.1 mph - N/A   Scattered Clouds
11:53 PM 55.0 °F 44.1 °F 67% 30.06 in 10.0 mi North 10.4 mph - N/A   Partly Cloudy